N0JVW-13 Weather Reports


time (UTC)temp
C
wind
direction
speed
KPH
gust
KPH
rain 1hr
cm
rain 24hr
cm
rain mn
cm
humidity
%
barometer
mb
20260831181527 34 330 0.0 4.8 0.00 0.00 0.00 41 1011.9
20260831181005 34 330 1.6 4.8 0.00 0.00 0.00 42 1012.0
20260831180548 34 330 0.0 4.8 0.00 0.00 0.00 45 1012.0
20260831180027 33 330 0.0 4.8 0.00 0.00 0.00 43 1012.2
20260831175506 33 330 0.0 4.8 0.00 0.00 0.00 43 1012.1
20260831175049 33 211 0.0 3.2 0.00 0.00 0.00 46 1012.2
20260831174536 33 137 0.0 6.4 0.00 0.00 0.00 48 1012.2
20260831174011 33 169 1.6 6.4 0.00 0.00 0.00 49 1012.2
20260831173554 33 224 0.0 4.8 0.00 0.00 0.00 50 1012.3
20260831173032 32 224 0.0 4.8 0.00 0.00 0.00 52 1012.4
20260831172510 32 227 0.0 8.0 0.00 0.00 0.00 51 1012.5
20260831172053 32 107 0.0 8.0 0.00 0.00 0.00 51 1012.7
20260831171536 32 239 0.0 3.2 0.00 0.00 0.00 51 1012.6
20260831171013 32 239 0.0 3.2 0.00 0.00 0.00 51 1012.7
20260831170557 31 239 0.0 3.2 0.00 0.00 0.00 51 1012.8
20260831170037 31 264 0.0 3.2 0.00 0.00 0.00 51 1012.8
20260831165517 31 264 0.0 3.2 0.00 0.00 0.00 51 1012.9
20260831165101 31 264 0.0 4.8 0.00 0.00 0.00 54 1012.9
20260831164539 31 264 0.0 4.8 0.00 0.00 0.00 53 1012.9
20260831164019 31 241 0.0 4.8 0.00 0.00 0.00 54 1013.0
20260831163604 31 285 0.0 3.2 0.00 0.00 0.00 54 1013.0
20260831163042 31 285 0.0 4.8 0.00 0.00 0.00 53 1012.9
20260831162524 30 285 0.0 6.4 0.00 0.00 0.00 52 1013.0
20260831162000 30 325 0.0 6.4 0.00 0.00 0.00 56 1012.9
20260831161549 30 257 0.0 1.6 0.00 0.00 0.00 55 1013.0
20260831161024 30 257 0.0 3.2 0.00 0.00 0.00 55 1013.0
20260831160502 30 257 0.0 3.2 0.00 0.00 0.00 54 1012.9
20260831160046 30 163 0.0 3.2 0.00 0.00 0.00 54 1012.9
20260831155526 30 165 0.0 3.2 0.00 0.00 0.00 56 1013.0
20260831155006 29 254 0.0 1.6 0.00 0.00 0.00 56 1012.9
20260831154553 29 254 0.0 1.6 0.00 0.00 0.00 57 1012.9
20260831154029 29 153 0.0 1.6 0.00 0.00 0.00 58 1013.0
20260831153506 28 274 0.0 1.6 0.00 0.00 0.00 59 1012.9
20260831153053 28 127 0.0 1.6 0.00 0.00 0.00 60 1013.0
20260831152531 28 110 0.0 4.8 0.00 0.00 0.00 59 1013.1
20260831152009 28 110 0.0 4.8 0.00 0.00 0.00 61 1013.0
20260831151558 28 137 0.0 3.2 0.00 0.00 0.00 63 1013.1
20260831151035 28 149 0.0 3.2 0.00 0.00 0.00 63 1013.0
20260831150512 28 147 0.0 3.2 0.00 0.00 0.00 64 1012.9
20260831150056 27 165 0.0 1.6 0.00 0.00 0.00 66 1012.9
20260831145535 27 142 0.0 4.8 0.00 0.00 0.00 64 1013.0
20260831145017 27 141 0.0 4.8 0.00 0.00 0.00 65 1012.9
20260831144644 27 156 0.0 4.8 0.00 0.00 0.00 65 1013.0
20260831144038 27 147 0.0 4.8 0.00 0.00 0.00 66 1013.0
20260831143522 26 155 0.0 4.8 0.00 0.00 0.00 67 1013.0
20260831143104 26 165 0.0 4.8 0.00 0.00 0.00 68 1013.0
20260831142542 26 174 0.0 4.8 0.00 0.00 0.00 68 1013.1
20260831142019 26 150 1.6 4.8 0.00 0.00 0.00 67 1013.1
20260831141603 26 160 0.0 3.2 0.00 0.00 0.00 68 1013.1
20260831141042 26 163 0.0 3.2 0.00 0.00 0.00 69 1013.1
20260831140522 25 131 0.0 0.0 0.00 0.00 0.00 69 1013.1
20260831140010 25 164 0.0 1.6 0.00 0.00 0.00 69 1013.1
20260831135553 25 164 0.0 1.6 0.00 0.00 0.00 70 1013.1
20260831135033 25 127 0.0 1.6 0.00 0.00 0.00 70 1013.1
20260831134513 24 114 0.0 3.2 0.00 0.00 0.00 70 1013.1
20260831134055 24 156 0.0 3.2 0.00 0.00 0.00 70 1013.1
20260831133535 24 165 0.0 3.2 0.00 0.00 0.00 71 1013.1
20260831133016 24 171 0.0 3.2 0.00 0.00 0.00 70 1013.0
20260831132559 24 171 0.0 3.2 0.00 0.00 0.00 70 1013.0
20260831132039 24 170 0.0 3.2 0.00 0.00 0.00 70 1013.0
20260831131519 24 170 0.0 3.2 0.00 0.00 0.00 71 1013.0
20260831131104 24 126 0.0 3.2 0.00 0.00 0.00 70 1013.0
20260831130543 23 139 0.0 4.8 0.00 0.00 0.00 71 1012.9
20260831130023 23 113 0.0 4.8 0.00 0.00 0.00 71 1012.8
20260831125501 23 162 0.0 3.2 0.00 0.00 0.00 71 1012.7
20260831125044 23 126 0.0 4.8 0.00 0.00 0.00 71 1012.6
20260831124524 23 170 1.6 4.8 0.00 0.00 0.00 71 1012.6
20260831124004 23 173 0.0 3.2 0.00 0.00 0.00 71 1012.6
20260831123546 23 149 0.0 3.2 0.00 0.00 0.00 71 1012.6
20260831123032 23 155 0.0 3.2 0.00 0.00 0.00 71 1012.5
20260831122505 23 144 0.0 3.2 0.00 0.00 0.00 71 1012.5
20260831122049 23 158 0.0 3.2 0.00 0.00 0.00 71 1012.5
20260831121540 23 124 0.0 3.2 0.00 0.00 0.00 71 1012.5
20260831121012 23 134 0.0 3.2 0.00 0.00 0.00 71 1012.4
20260831120554 23 129 0.0 3.2 0.00 0.00 0.00 71 1012.3
20260831120037 23 128 0.0 3.2 0.00 0.00 0.00 71 1012.3
20260831115511 23 136 0.0 3.2 0.00 0.00 0.00 71 1012.4
20260831115054 23 158 0.0 4.8 0.00 0.00 0.00 71 1012.3
20260831114548 23 162 0.0 4.8 0.00 0.00 0.00 71 1012.2
20260831114014 23 131 0.0 3.2 0.00 0.00 0.00 70 1012.2
20260831113558 23 167 0.0 3.2 0.00 0.00 0.00 70 1012.2
20260831113040 23 143 0.0 3.2 0.00 0.00 0.00 70 1012.1
20260831112521 23 149 0.0 3.2 0.00 0.00 0.00 70 1012.1
20260831112101 23 134 0.0 1.6 0.00 0.00 0.00 70 1012.1
20260831111546 23 153 0.0 3.2 0.00 0.00 0.00 70 1011.9
20260831111018 23 143 0.0 3.2 0.00 0.00 0.00 70 1011.8
20260831110602 23 159 0.0 3.2 0.00 0.00 0.00 70 1011.8
20260831110041 23 141 0.0 3.2 0.00 0.00 0.00 70 1011.9
20260831105521 23 108 0.0 3.2 0.00 0.00 0.00 70 1011.8
20260831105107 23 101 0.0 3.2 0.00 0.00 0.00 70 1011.7
20260831104546 23 155 0.0 3.2 0.00 0.00 0.00 70 1011.6
20260831104023 23 122 0.0 4.8 0.00 0.00 0.00 70 1011.5
20260831103504 23 144 1.6 4.8 0.00 0.00 0.00 70 1011.4
20260831103047 23 154 0.0 3.2 0.00 0.00 0.00 70 1011.4
20260831102529 23 155 0.0 3.2 0.00 0.00 0.00 70 1011.4
20260831102006 23 139 0.0 3.2 0.00 0.00 0.00 69 1011.4
20260831101550 23 124 0.0 3.2 0.00 0.00 0.00 69 1011.4
20260831101030 23 162 0.0 3.2 0.00 0.00 0.00 69 1011.2
20260831100509 24 169 0.0 1.6 0.00 0.00 0.00 69 1011.3
20260831100115 24 145 0.0 1.6 0.00 0.00 0.00 69 1011.3
20260831095532 24 150 0.0 3.2 0.00 0.00 0.00 69 1011.3
20260831095011 24 142 0.0 3.2 0.00 0.00 0.00 68 1011.2
20260831094556 24 158 0.0 3.2 0.00 0.00 0.00 68 1011.2
20260831094034 24 169 0.0 3.2 0.00 0.00 0.00 68 1011.3
20260831093517 24 148 0.0 4.8 0.00 0.00 0.00 68 1011.3
20260831093059 24 128 0.0 4.8 0.00 0.00 0.00 67 1011.2
20260831092537 24 161 0.0 3.2 0.00 0.00 0.00 67 1011.3
20260831092022 25 137 0.0 4.8 0.00 0.00 0.00 67 1011.2
20260831091605 25 157 1.6 4.8 0.00 0.00 0.00 66 1011.2
20260831091040 25 137 0.0 4.8 0.00 0.00 0.00 66 1011.2
20260831090520 25 115 1.6 4.8 0.00 0.00 0.00 66 1011.1
20260831085542 25 158 0.0 3.2 0.00 0.00 0.00 66 1011.1
20260831085022 25 134 0.0 3.2 0.00 0.00 0.00 65 1011.1
20260831084501 25 159 0.0 3.2 0.00 0.00 0.00 65 1011.1
20260831084044 25 140 0.0 3.2 0.00 0.00 0.00 65 1011.1
20260831083524 25 155 0.0 3.2 0.00 0.00 0.00 65 1011.1
20260831083003 25 134 0.0 3.2 0.00 0.00 0.00 65 1011.2
20260831082547 25 155 0.0 3.2 0.00 0.00 0.00 65 1011.2
20260831082026 25 122 0.0 3.2 0.00 0.00 0.00 65 1011.1
20260831081506 25 141 0.0 4.8 0.00 0.00 0.00 65 1011.1
20260831081049 25 171 0.0 4.8 0.00 0.00 0.00 65 1011.0
20260831080529 25 139 0.0 3.2 0.00 0.00 0.00 65 1010.9
20260831080007 25 155 0.0 3.2 0.00 0.00 0.00 65 1010.9
20260831075551 25 136 0.0 3.2 0.00 0.00 0.00 65 1010.8
20260831075032 25 155 0.0 3.2 0.00 0.00 0.00 64 1010.8
20260831074510 25 146 0.0 3.2 0.00 0.00 0.00 65 1010.8
20260831074054 25 158 0.0 4.8 0.00 0.00 0.00 65 1010.8
20260831073534 25 129 0.0 4.8 0.00 0.00 0.00 65 1010.8
20260831073017 25 155 0.0 4.8 0.00 0.00 0.00 65 1010.7
20260831072556 25 146 0.0 3.2 0.00 0.00 0.00 65 1010.8
20260831072036 25 157 0.0 4.8 0.00 0.00 0.00 65 1010.8
20260831071518 25 155 0.0 4.8 0.00 0.00 0.00 65 1010.7
20260831071059 25 141 0.0 4.8 0.00 0.00 0.00 65 1010.7
20260831070538 25 159 0.0 4.8 0.00 0.00 0.00 64 1010.7
20260831070017 25 124 1.6 3.2 0.00 0.00 0.00 64 1010.6
20260831065603 25 133 1.6 3.2 0.00 0.00 0.00 64 1010.6
20260831065041 25 154 0.0 3.2 0.00 0.00 0.00 64 1010.7
20260831064523 25 138 0.0 4.8 0.00 0.00 0.00 63 1010.6
20260831064102 25 162 0.0 4.8 0.00 0.00 0.00 63 1010.5
20260831063542 25 139 0.0 3.2 0.00 0.00 0.00 63 1010.5
20260831063025 26 150 0.0 3.2 0.00 0.00 0.00 63 1010.5
20260831062501 26 139 0.0 3.2 0.00 0.00 0.00 63 1010.4
20260831062045 26 133 0.0 3.2 0.00 0.00 0.00 62 1010.4
20260831061525 26 128 0.0 1.6 0.00 0.00 0.00 62 1010.4
20260831061006 26 160 0.0 3.2 0.00 0.00 0.00 61 1010.3
20260831060546 26 130 0.0 3.2 0.00 0.00 0.00 61 1010.3
20260831060027 26 163 0.0 1.6 0.00 0.00 0.00 60 1010.3
20260831055505 26 158 0.0 3.2 0.00 0.00 0.00 60 1010.3
20260831055049 26 139 0.0 3.2 0.00 0.00 0.00 60 1010.2
20260831054528 26 146 0.0 3.2 0.00 0.00 0.00 60 1010.2
20260831054006 26 153 0.0 3.2 0.00 0.00 0.00 59 1010.1
20260831053550 26 153 0.0 3.2 0.00 0.00 0.00 59 1010.0
20260831053032 26 140 0.0 3.2 0.00 0.00 0.00 60 1010.1
20260831052509 26 148 0.0 3.2 0.00 0.00 0.00 59 1010.2
20260831052052 26 141 0.0 3.2 0.00 0.00 0.00 59 1010.1
20260831051531 27 132 0.0 3.2 0.00 0.00 0.00 59 1010.0
20260831051010 27 127 0.0 3.2 0.00 0.00 0.00 58 1010.0
20260831050553 27 153 0.0 1.6 0.00 0.00 0.00 58 1010.0
20260831050033 27 153 0.0 1.6 0.00 0.00 0.00 58 1010.0
20260831045513 27 146 0.0 1.6 0.00 0.00 0.00 57 1010.1
20260831045057 27 136 0.0 1.6 0.00 0.00 0.00 58 1010.1
20260831044536 27 150 0.0 0.0 0.00 0.00 0.00 57 1010.2
20260831044015 27 153 0.0 1.6 0.00 0.00 0.00 56 1010.2
20260831043558 27 162 0.0 1.6 0.00 0.00 0.00 56 1010.2
20260831043044 27 146 0.0 1.6 0.00 0.00 0.00 56 1010.1
20260831042518 27 146 0.0 1.6 0.00 0.00 0.00 56 1010.1
20260831042103 28 146 0.0 1.6 0.00 0.00 0.00 55 1010.1
20260831041553 28 124 0.0 1.6 0.00 0.00 0.00 55 1010.1
20260831041021 28 152 0.0 1.6 0.00 0.00 0.00 55 1010.2
20260831040604 28 140 0.0 1.6 0.00 0.00 0.00 54 1010.1
20260831040043 28 131 0.0 0.0 0.00 0.00 0.00 54 1010.2
20260831035524 28 129 0.0 0.0 0.00 0.00 0.00 54 1010.2
20260831035002 28 134 0.0 0.0 0.00 0.00 0.00 54 1010.2
20260831034546 28 156 0.0 1.6 0.00 0.00 0.00 54 1010.2
20260831034025 28 169 0.0 1.6 0.00 0.00 0.00 54 1010.2
20260831033508 28 144 0.0 3.2 0.00 0.00 0.00 54 1010.1
20260831033105 28 152 0.0 3.2 0.00 0.00 0.00 54 1010.1
20260831032530 28 117 0.0 3.2 0.00 0.00 0.00 54 1010.1
20260831032008 28 143 0.0 3.2 0.00 0.00 0.00 53 1010.1
20260831031554 29 136 0.0 3.2 0.00 0.00 0.00 53 1010.0
20260831031031 29 166 0.0 1.6 0.00 0.00 0.00 53 1010.0
20260831030511 29 143 0.0 3.2 0.00 0.00 0.00 53 1010.1
20260831030053 29 157 0.0 3.2 0.00 0.00 0.00 53 1010.0
20260831025533 29 146 0.0 3.2 0.00 0.00 0.00 53 1010.0
20260831025012 29 163 0.0 3.2 0.00 0.00 0.00 53 1010.0
20260831024600 29 130 0.0 3.2 0.00 0.00 0.00 53 1009.9
20260831024037 29 153 0.0 3.2 0.00 0.00 0.00 53 1009.9
20260831023515 29 149 0.0 3.2 0.00 0.00 0.00 53 1009.9
20260831023100 29 146 0.0 3.2 0.00 0.00 0.00 53 1009.8
20260831022537 29 155 0.0 1.6 0.00 0.00 0.00 53 1009.8
20260831022017 30 119 0.0 1.6 0.00 0.00 0.00 53 1009.7
20260831021600 30 140 0.0 1.6 0.00 0.00 0.00 53 1009.7
20260831021041 30 134 0.0 3.2 0.00 0.00 0.00 52 1009.7
20260831020522 30 154 0.0 3.2 0.00 0.00 0.00 52 1009.7
20260831015541 30 141 0.0 1.6 0.00 0.00 0.00 52 1009.5
20260831015020 30 150 0.0 3.2 0.00 0.00 0.00 52 1009.4
20260831014606 30 141 0.0 3.2 0.00 0.00 0.00 52 1009.3
20260831014044 30 139 0.0 1.6 0.00 0.00 0.00 52 1009.3
20260831013524 30 148 0.0 1.6 0.00 0.00 0.00 52 1009.3
20260831013003 30 141 0.0 1.6 0.00 0.00 0.00 51 1009.2
20260831012546 30 153 0.0 1.6 0.00 0.00 0.00 52 1009.2
20260831012026 31 118 0.0 1.6 0.00 0.00 0.00 52 1009.1
20260831011515 31 142 0.0 0.0 0.00 0.00 0.00 51 1009.1
20260831011049 31 142 0.0 0.0 0.00 0.00 0.00 51 1009.1
20260831010529 31 142 0.0 0.0 0.00 0.00 0.00 51 1009.0
20260831010013 31 142 0.0 1.6 0.00 0.00 0.00 50 1008.9
20260831005554 31 141 0.0 1.6 0.00 0.00 0.00 49 1008.9
20260831005031 32 141 0.0 1.6 0.00 0.00 0.00 49 1008.8
20260831004513 32 153 0.0 3.2 0.00 0.00 0.00 48 1008.7
20260831004054 32 139 0.0 3.2 0.00 0.00 0.00 48 1008.7
20260831003535 32 155 0.0 3.2 0.00 0.00 0.00 47 1008.7
20260831003020 32 143 0.0 4.8 0.00 0.00 0.00 47 1008.7
20260831002555 32 171 0.0 4.8 0.00 0.00 0.00 47 1008.6
20260831002035 32 129 0.0 4.8 0.00 0.00 0.00 47 1008.6
20260831001523 33 132 0.0 4.8 0.00 0.00 0.00 46 1008.5
20260831001058 33 143 0.0 1.6 0.00 0.00 0.00 46 1008.5
20260831000538 33 133 0.0 1.6 0.00 0.00 0.00 46 1008.5
20260831000018 33 128 0.0 1.6 0.00 0.00 0.00 45 1008.6
20260830235603 33 149 0.0 1.6 0.00 0.00 0.00 45 1008.5
20260830235045 33 134 0.0 1.6 0.00 0.00 0.00 44 1008.5
20260830234518 33 148 0.0 1.6 0.00 0.00 0.00 44 1008.5
20260830234102 33 148 0.0 3.2 0.00 0.00 0.00 43 1008.6
20260830233542 34 148 0.0 3.2 0.00 0.00 0.00 42 1008.5
20260830233021 34 134 0.0 3.2 0.00 0.00 0.00 41 1008.5
20260830232501 34 145 0.0 3.2 0.00 0.00 0.00 41 1008.5
20260830232045 34 157 1.6 4.8 0.00 0.00 0.00 40 1008.5
20260830231524 34 151 0.0 3.2 0.00 0.00 0.00 40 1008.5
20260830231105 35 157 0.0 4.8 0.00 0.00 0.00 40 1008.5
20260830230543 35 128 0.0 4.8 0.00 0.00 0.00 39 1008.5
20260830230027 35 122 1.6 4.8 0.00 0.00 0.00 39 1008.4
20260830225502 35 167 1.6 4.8 0.00 0.00 0.00 40 1008.4
20260830225046 35 172 0.0 4.8 0.00 0.00 0.00 39 1008.4
20260830224525 35 164 0.0 4.8 0.00 0.00 0.00 39 1008.4
20260830224006 35 131 0.0 6.4 0.00 0.00 0.00 38 1008.5
20260830223550 35 122 0.0 6.4 0.00 0.00 0.00 38 1008.5
20260830223030 35 129 0.0 6.4 0.00 0.00 0.00 38 1008.4
20260830222509 35 129 3.2 8.0 0.00 0.00 0.00 39 1008.4
20260830222052 35 134 1.6 8.0 0.00 0.00 0.00 40 1008.4
20260830221531 35 157 1.6 6.4 0.00 0.00 0.00 41 1008.4
20260830221011 35 146 3.2 6.4 0.00 0.00 0.00 40 1008.4
20260830220555 35 176 3.2 6.4 0.00 0.00 0.00 41 1008.5
20260830220037 35 140 1.6 4.8 0.00 0.00 0.00 41 1008.6
20260830215514 35 125 0.0 6.4 0.00 0.00 0.00 41 1008.6
20260830215058 35 126 1.6 6.4 0.00 0.00 0.00 41 1008.6
20260830214537 35 124 0.0 4.8 0.00 0.00 0.00 42 1008.7
20260830214015 35 134 1.6 4.8 0.00 0.00 0.00 42 1008.7
20260830213559 35 120 0.0 6.4 0.00 0.00 0.00 43 1008.7
20260830213038 35 159 1.6 8.0 0.00 0.00 0.00 42 1008.8
20260830212519 35 146 1.6 8.0 0.00 0.00 0.00 42 1008.7
20260830212101 35 131 0.0 4.8 0.00 0.00 0.00 43 1008.7
20260830211541 35 165 0.0 4.8 0.00 0.00 0.00 42 1008.8
20260830211019 35 155 1.6 6.4 0.00 0.00 0.00 42 1008.9
20260830210602 35 165 3.2 8.0 0.00 0.00 0.00 43 1009.0
20260830210051 35 134 1.6 8.0 0.00 0.00 0.00 42 1009.0
20260830205526 35 142 0.0 6.4 0.00 0.00 0.00 42 1009.1
20260830205104 35 152 1.6 6.4 0.00 0.00 0.00 42 1009.2
20260830204548 35 132 0.0 6.4 0.00 0.00 0.00 43 1009.2
20260830204024 35 158 1.6 6.4 0.00 0.00 0.00 42 1009.4
20260830203503 35 168 1.6 9.7 0.00 0.00 0.00 42 1009.5
20260830203046 35 129 3.2 8.0 0.00 0.00 0.00 41 1009.6
20260830202525 35 146 0.0 8.0 0.00 0.00 0.00 42 1009.7
20260830202005 35 162 3.2 6.4 0.00 0.00 0.00 41 1009.7
20260830201550 35 124 0.0 6.4 0.00 0.00 0.00 42 1009.8
20260830201028 35 130 0.0 6.4 0.00 0.00 0.00 43 1009.8
20260830200506 35 128 0.0 8.0 0.00 0.00 0.00 43 1009.7
20260830200105 35 122 1.6 9.7 0.00 0.00 0.00 42 1009.9
20260830195530 35 174 3.2 9.7 0.00 0.00 0.00 42 1009.9
20260830195009 35 164 3.2 9.7 0.00 0.00 0.00 42 1010.0
20260830194618 35 162 1.6 9.7 0.00 0.00 0.00 43 1010.1
20260830194029 35 155 1.6 9.7 0.00 0.00 0.00 43 1010.1
20260830193509 35 155 1.6 8.0 0.00 0.00 0.00 43 1010.2
20260830193052 35 158 1.6 8.0 0.00 0.00 0.00 45 1010.3
20260830192531 35 145 1.6 8.0 0.00 0.00 0.00 43 1010.2
20260830192010 34 175 0.0 8.0 0.00 0.00 0.00 44 1010.4
20260830191559 35 174 1.6 8.0 0.00 0.00 0.00 44 1010.3
20260830191034 35 165 0.0 6.4 0.00 0.00 0.00 45 1010.4
20260830190513 35 165 3.2 6.4 0.00 0.00 0.00 44 1010.4
20260830190057 34 137 0.0 6.4 0.00 0.00 0.00 46 1010.5
20260830185537 34 141 0.0 6.4 0.00 0.00 0.00 45 1010.5
20260830185015 33 131 1.6 8.0 0.00 0.00 0.00 46 1010.6
20260830184558 33 148 1.6 6.4 0.00 0.00 0.00 45 1010.7
20260830184038 33 140 1.6 8.0 0.00 0.00 0.00 46 1010.7
20260830183518 33 127 0.0 8.0 0.00 0.00 0.00 47 1010.7
20260830183117 33 136 1.6 8.0 0.00 0.00 0.00 47 1010.7
20260830182540 33 173 0.0 8.0 0.00 0.00 0.00 47 1010.7